Location: Wildcat Hills Observatory
(41.6350°N, 103.6812°W)
Time: 20:55:42
(UTC-07:00)

IGS 5A - Pass Details

Date: 23 June 2018
Orbit: 585 x 588 km, 97.7° (Epoch: 03 October)

Event Time Altitude Azimuth Distance (km) Brightness Sun altitude
Exits shadow 23:10:55 35° 215° (SW) 957 4.3 -20.5°
Maximum altitude 23:12:09 46° 261° (W) 794 4.2 -20.6°
Drops below altitude 10° 23:16:09 10° 335° (NNW) 1,916 7.3 -20.9°
Sets 23:18:24 0° 342° (NNW) 2,822 8.5 -21.1°
